Location: Newark
(50.9000°N, 14.8333°E)
Time: 18:17:45
(UTC+00:00)

N. Korean satellite - Pass Details

Date: 30 October 2020
Orbit: 453 x 503 km, 97.2° (Epoch: 04 December)

Event Time Altitude Azimuth Distance (km) Brightness Sun altitude
Rises 16:16:49 0° 192° (SSW) 2,534 10.6 -6.6°
Reaches altitude 10° 16:19:05 10° 205° (SSW) 1,650 9.8 -7.0°
Maximum altitude 16:22:09 27° 265° (W) 942 9.1 -7.5°
Drops below altitude 10° 16:25:12 10° 325° (NW) 1,638 9.6 -7.9°
Sets 16:27:28 0° 338° (NNW) 2,511 10.3 -8.3°
